• în România
  • Lista ţărilor
  • Pe 7 zile
  • Temperatura apei
  • Hartă satelitară
  • Meteo pe hartă
  • Widget-uri
  • user-avatar
    Intrare

    Meteo pe oră la Gjirokaster

    Astăzi, 16 Iulie, Luni

    Timp Temperatura Precipitaţii Vânt Presiune Umiditate
    00:00 +16°C° 0 mm 2 m/s 652 mmHg 56%
    01:00 +16°C° 0 mm 2 m/s 652 mmHg 53%
    02:00 +16°C° 0 mm 2 m/s 652 mmHg 53%
    03:00 +16°C° 0 mm 2 m/s 652 mmHg 53%
    04:00 +15°C° 0 mm 2 m/s 652 mmHg 54%
    05:00 +17°C° 0 mm 2 m/s 652 mmHg 53%
    06:00 +19°C° 0 mm 2 m/s 653 mmHg 53%
    07:00 +21°C° 0 mm 1 m/s 653 mmHg 52%
    08:00 +23°C° 0 mm 2 m/s 653 mmHg 48%
    09:00 +24°C° 0 mm 2 m/s 654 mmHg 43%
    10:00 +26°C° 0 mm 3 m/s 654 mmHg 39%
    11:00 +26°C° 0 mm 3 m/s 654 mmHg 38%
    12:00 +27°C° 0 mm 4 m/s 654 mmHg 38%
    13:00 +27°C° 0 mm 5 m/s 654 mmHg 37%
    14:00 +27°C° 0 mm 4 m/s 654 mmHg 37%
    15:00 +27°C° 0 mm 4 m/s 654 mmHg 38%
    16:00 +26°C° 0 mm 4 m/s 653 mmHg 39%
    17:00 +24°C° 0 mm 3 m/s 653 mmHg 46%
    18:00 +21°C° 0 mm 2 m/s 652 mmHg 53%
    19:00 +19°C° 0 mm 2 m/s 652 mmHg 60%
    20:00 +20°C° 0 mm 1 m/s 652 mmHg 60%
    21:00 +19°C° 0 mm 1 m/s 652 mmHg 61%
    22:00 +18°C° 0 mm 1 m/s 652 mmHg 61%
    23:00 +18°C° 0 mm 1 m/s 651 mmHg 61%

    Mâine, 17 Iulie, Marţi

    Timp Temperatura Precipitaţii Vânt Presiune Umiditate
    00:00 +17°C° 0 mm 2 m/s 651 mmHg 60%
    01:00 +16°C° 0 mm 2 m/s 651 mmHg 59%
    02:00 +16°C° 0 mm 2 m/s 651 mmHg 60%
    03:00 +16°C° 0 mm 2 m/s 650 mmHg 60%
    04:00 +16°C° 0 mm 2 m/s 650 mmHg 60%
    05:00 +17°C° 0 mm 3 m/s 650 mmHg 59%
    06:00 +19°C° 0 mm 3 m/s 650 mmHg 58%
    07:00 +20°C° 0 mm 4 m/s 650 mmHg 57%
    08:00 +21°C° 0 mm 4 m/s 650 mmHg 54%
    09:00 +22°C° 0 mm 5 m/s 650 mmHg 51%
    10:00 +25°C° 0 mm 5 m/s 651 mmHg 48%
    11:00 +25°C° 0 mm 4 m/s 650 mmHg 49%
    12:00 +25°C° 0 mm 4 m/s 650 mmHg 50%
    13:00 +25°C° 0 mm 4 m/s 650 mmHg 51%
    14:00 +25°C° 0 mm 3 m/s 650 mmHg 52%
    15:00 +24°C° 0 mm 3 m/s 650 mmHg 53%
    16:00 +24°C° 0 mm 3 m/s 650 mmHg 55%
    17:00 +21°C° 0 mm 3 m/s 649 mmHg 61%
    18:00 +19°C° 0 mm 3 m/s 649 mmHg 68%
    19:00 +18°C° 0 mm 3 m/s 649 mmHg 75%
    20:00 +17°C° 0 mm 3 m/s 649 mmHg 79%
    21:00 +16°C° 0 mm 3 m/s 649 mmHg 84%
    22:00 +14°C° 0 mm 3 m/s 649 mmHg 88%
    23:00 +14°C° 0 mm 3 m/s 649 mmHg 89%

    Poimâine, 18 Iulie, Miercuri

    Timp Temperatura Precipitaţii Vânt Presiune Umiditate
    00:00 +14°C° 0 mm 3 m/s 649 mmHg 89%
    01:00 +13°C° 0 mm 3 m/s 649 mmHg 90%
    02:00 +13°C° 0 mm 3 m/s 649 mmHg 89%
    03:00 +13°C° 0 mm 3 m/s 649 mmHg 89%
    04:00 +12°C° 0 mm 3 m/s 649 mmHg 88%
    05:00 +14°C° 0 mm 3 m/s 649 mmHg 82%
    06:00 +16°C° 0 mm 3 m/s 650 mmHg 76%
    07:00 +17°C° 0 mm 3 m/s 650 mmHg 70%
    08:00 +19°C° 0 mm 3 m/s 651 mmHg 63%
    09:00 +21°C° 0 mm 3 m/s 651 mmHg 56%
    10:00 +22°C° 0 mm 3 m/s 652 mmHg 50%
    11:00 +23°C° 0 mm 4 m/s 652 mmHg 48%
    12:00 +25°C° 0 mm 4 m/s 652 mmHg 45%
    13:00 +25°C° 0 mm 5 m/s 652 mmHg 43%
    14:00 +25°C° 0 mm 5 m/s 652 mmHg 45%
    15:00 +24°C° 0 mm 6 m/s 651 mmHg 47%
    16:00 +23°C° 0 mm 6 m/s 651 mmHg 48%
    17:00 +21°C° 0 mm 5 m/s 651 mmHg 55%
    18:00 +19°C° 0 mm 5 m/s 651 mmHg 61%
    19:00 +18°C° 0 mm 4 m/s 650 mmHg 68%
    20:00 +17°C° 0 mm 4 m/s 650 mmHg 70%
    21:00 +16°C° 0 mm 3 m/s 651 mmHg 72%
    22:00 +14°C° 0 mm 3 m/s 651 mmHg 74%
    23:00 +13°C° 0 mm 3 m/s 650 mmHg 74%

    19 Iulie, Joi

    Timp Temperatura Precipitaţii Vânt Presiune Umiditate
    00:00 +13°C° 0 mm 3 m/s 650 mmHg 73%
    01:00 +13°C° 0 mm 3 m/s 650 mmHg 73%
    02:00 +14°C° 0 mm 2 m/s 650 mmHg 72%
    03:00 +14°C° 0 mm 2 m/s 650 mmHg 71%
    04:00 +13°C° 0 mm 2 m/s 650 mmHg 70%
    05:00 +15°C° 0 mm 2 m/s 650 mmHg 65%
    06:00 +17°C° 0 mm 2 m/s 651 mmHg 60%
    07:00 +19°C° 0 mm 2 m/s 651 mmHg 55%
    08:00 +20°C° 0 mm 3 m/s 652 mmHg 49%
    09:00 +22°C° 0 mm 3 m/s 652 mmHg 43%
    10:00 +23°C° 0 mm 4 m/s 652 mmHg 37%
    11:00 +25°C° 0 mm 4 m/s 652 mmHg 37%
    12:00 +25°C° 0 mm 5 m/s 652 mmHg 37%
    13:00 +25°C° 0 mm 5 m/s 652 mmHg 36%
    14:00 +25°C° 0 mm 5 m/s 652 mmHg 39%
    15:00 +25°C° 0 mm 5 m/s 652 mmHg 41%
    16:00 +23°C° 0 mm 5 m/s 652 mmHg 43%
    17:00 +21°C° 0 mm 5 m/s 651 mmHg 51%
    18:00 +19°C° 0 mm 4 m/s 651 mmHg 58%
    19:00 +17°C° 0 mm 3 m/s 651 mmHg 66%
    20:00 +17°C° 0 mm 3 m/s 651 mmHg 67%
    21:00 +16°C° 0 mm 3 m/s 651 mmHg 69%
    22:00 +15°C° 0 mm 2 m/s 651 mmHg 70%
    23:00 +15°C° 0 mm 2 m/s 651 mmHg 69%

    20 Iulie, Vineri

    Timp Temperatura Precipitaţii Vânt Presiune Umiditate
    00:00 +14°C° 0 mm 2 m/s 651 mmHg 68%
    01:00 +14°C° 0 mm 2 m/s 651 mmHg 68%
    02:00 +14°C° 0 mm 2 m/s 650 mmHg 69%
    03:00 +14°C° 0 mm 2 m/s 650 mmHg 70%
    04:00 +13°C° 0 mm 2 m/s 650 mmHg 71%
    05:00 +15°C° 0 mm 2 m/s 651 mmHg 68%
    06:00 +17°C° 0 mm 2 m/s 651 mmHg 64%
    07:00 +18°C° 0 mm 2 m/s 652 mmHg 60%
    08:00 +20°C° 0 mm 2 m/s 652 mmHg 52%
    09:00 +23°C° 0 mm 2 m/s 653 mmHg 45%
    10:00 +24°C° 0 mm 3 m/s 653 mmHg 37%
    11:00 +25°C° 0 mm 3 m/s 653 mmHg 36%
    12:00 +26°C° 0 mm 4 m/s 653 mmHg 35%
    13:00 +26°C° 0 mm 4 m/s 653 mmHg 34%
    14:00 +26°C° 0 mm 4 m/s 653 mmHg 35%
    15:00 +26°C° 0 mm 4 m/s 653 mmHg 37%
    16:00 +26°C° 0 mm 4 m/s 653 mmHg 39%
    17:00 +22°C° 0 mm 3 m/s 652 mmHg 46%
    18:00 +20°C° 0 mm 3 m/s 652 mmHg 52%
    19:00 +18°C° 0 mm 2 m/s 652 mmHg 59%
    20:00 +17°C° 0 mm 2 m/s 652 mmHg 61%
    21:00 +17°C° 0 mm 2 m/s 652 mmHg 63%
    22:00 +16°C° 0 mm 2 m/s 652 mmHg 64%
    23:00 +15°C° 0 mm 2 m/s 652 mmHg 64%

    21 Iulie, Sâmbătă

    Timp Temperatura Precipitaţii Vânt Presiune Umiditate
    00:00 +15°C° 0 mm 1 m/s 652 mmHg 64%
    01:00 +15°C° 0 mm 1 m/s 651 mmHg 63%
    02:00 +14°C° 0 mm 1 m/s 651 mmHg 60%
    03:00 +14°C° 0 mm 1 m/s 651 mmHg 57%
    04:00 +14°C° 0 mm 1 m/s 651 mmHg 54%
    05:00 +16°C° 0 mm 1 m/s 651 mmHg 50%
    06:00 +19°C° 0 mm 1 m/s 652 mmHg 46%
    07:00 +20°C° 0 mm 2 m/s 652 mmHg 42%
    08:00 +23°C° 0 mm 2 m/s 653 mmHg 38%
    09:00 +24°C° 0 mm 2 m/s 653 mmHg 34%
    10:00 +26°C° 0 mm 3 m/s 653 mmHg 30%
    11:00 +27°C° 0 mm 3 m/s 653 mmHg 31%
    12:00 +28°C° 0 mm 4 m/s 653 mmHg 32%
    13:00 +28°C° 0 mm 5 m/s 653 mmHg 32%
    14:00 +27°C° 0 mm 5 m/s 652 mmHg 35%
    15:00 +27°C° 0 mm 5 m/s 652 mmHg 37%
    16:00 +26°C° 0 mm 5 m/s 651 mmHg 39%
    17:00 +23°C° 0 mm 5 m/s 651 mmHg 47%
    18:00 +21°C° 0 mm 4 m/s 650 mmHg 56%
    19:00 +19°C° 0 mm 4 m/s 650 mmHg 64%
    20:00 +18°C° 0 mm 4 m/s 649 mmHg 69%
    21:00 +17°C° 0 mm 3 m/s 649 mmHg 74%
    22:00 +16°C° 0 mm 3 m/s 649 mmHg 79%
    23:00 +14°C° 0,1 mm 3 m/s 649 mmHg 81%
    Arată mai mult